locationName,lineName,date,time,countIn,countOut
�n����ʂ�,3_1_3,2022/9/1,0:00,0,0
�n����ʂ�,3_1_3,2022/9/1,1:00,1,0
�n����ʂ�,3_1_3,2022/9/1,2:00,1,1
�n����ʂ�,3_1_3,2022/9/1,3:00,1,2
�n����ʂ�,3_1_3,2022/9/1,4:00,3,1
�n����ʂ�,3_1_3,2022/9/1,5:00,20,14
�n����ʂ�,3_1_3,2022/9/1,6:00,32,45
�n����ʂ�,3_1_3,2022/9/1,7:00,59,223
�n����ʂ�,3_1_3,2022/9/1,8:00,103,250
�n����ʂ�,3_1_3,2022/9/1,9:00,113,104
�n����ʂ�,3_1_3,2022/9/1,10:00,132,106
�n����ʂ�,3_1_3,2022/9/1,11:00,104,120
�n����ʂ�,3_1_3,2022/9/1,12:00,175,125
�n����ʂ�,3_1_3,2022/9/1,13:00,140,156
�n����ʂ�,3_1_3,2022/9/1,14:00,144,118
�n����ʂ�,3_1_3,2022/9/1,15:00,135,109
�n����ʂ�,3_1_3,2022/9/1,16:00,180,110
�n����ʂ�,3_1_3,2022/9/1,17:00,252,96
�n����ʂ�,3_1_3,2022/9/1,18:00,215,94
�n����ʂ�,3_1_3,2022/9/1,19:00,59,53
�n����ʂ�,3_1_3,2022/9/1,20:00,47,41
�n����ʂ�,3_1_3,2022/9/1,21:00,33,21
�n����ʂ�,3_1_3,2022/9/1,22:00,9,2
�n����ʂ�,3_1_3,2022/9/1,23:00,2,1
�n����ʂ�,3_1_3,2022/9/2,0:00,0,1
�n����ʂ�,3_1_3,2022/9/2,1:00,3,0
�n����ʂ�,3_1_3,2022/9/2,2:00,1,1
�n����ʂ�,3_1_3,2022/9/2,3:00,2,1
�n����ʂ�,3_1_3,2022/9/2,4:00,5,1
�n����ʂ�,3_1_3,2022/9/2,5:00,14,23
�n����ʂ�,3_1_3,2022/9/2,6:00,45,63
�n����ʂ�,3_1_3,2022/9/2,7:00,57,247
�n����ʂ�,3_1_3,2022/9/2,8:00,99,298
�n����ʂ�,3_1_3,2022/9/2,9:00,115,126
�n����ʂ�,3_1_3,2022/9/2,10:00,169,183
�n����ʂ�,3_1_3,2022/9/2,11:00,187,175
�n����ʂ�,3_1_3,2022/9/2,12:00,253,243
�n����ʂ�,3_1_3,2022/9/2,13:00,201,184
�n����ʂ�,3_1_3,2022/9/2,14:00,173,182
�n����ʂ�,3_1_3,2022/9/2,15:00,268,158
�n����ʂ�,3_1_3,2022/9/2,16:00,292,142
�n����ʂ�,3_1_3,2022/9/2,17:00,278,129
�n����ʂ�,3_1_3,2022/9/2,18:00,249,111
�n����ʂ�,3_1_3,2022/9/2,19:00,81,73
�n����ʂ�,3_1_3,2022/9/2,20:00,51,69
�n����ʂ�,3_1_3,2022/9/2,21:00,51,33
�n����ʂ�,3_1_3,2022/9/2,22:00,10,2
�n����ʂ�,3_1_3,2022/9/2,23:00,7,2
�n����ʂ�,3_1_3,2022/9/3,0:00,6,2
�n����ʂ�,3_1_3,2022/9/3,1:00,1,0
�n����ʂ�,3_1_3,2022/9/3,2:00,3,0
�n����ʂ�,3_1_3,2022/9/3,3:00,1,1
�n����ʂ�,3_1_3,2022/9/3,4:00,4,0
�n����ʂ�,3_1_3,2022/9/3,5:00,13,14
�n����ʂ�,3_1_3,2022/9/3,6:00,37,47
�n����ʂ�,3_1_3,2022/9/3,7:00,60,63
�n����ʂ�,3_1_3,2022/9/3,8:00,68,105
�n����ʂ�,3_1_3,2022/9/3,9:00,129,128
�n����ʂ�,3_1_3,2022/9/3,10:00,202,231
�n����ʂ�,3_1_3,2022/9/3,11:00,260,289
�n����ʂ�,3_1_3,2022/9/3,12:00,348,310
�n����ʂ�,3_1_3,2022/9/3,13:00,326,314
�n����ʂ�,3_1_3,2022/9/3,14:00,383,312
�n����ʂ�,3_1_3,2022/9/3,15:00,330,308
�n����ʂ�,3_1_3,2022/9/3,16:00,238,231
�n����ʂ�,3_1_3,2022/9/3,17:00,201,212
�n����ʂ�,3_1_3,2022/9/3,18:00,141,133
�n����ʂ�,3_1_3,2022/9/3,19:00,98,76
�n����ʂ�,3_1_3,2022/9/3,20:00,96,68
�n����ʂ�,3_1_3,2022/9/3,21:00,57,42
�n����ʂ�,3_1_3,2022/9/3,22:00,13,5
�n����ʂ�,3_1_3,2022/9/3,23:00,8,1
�n����ʂ�,3_1_3,2022/9/4,0:00,6,2
�n����ʂ�,3_1_3,2022/9/4,1:00,0,1
�n����ʂ�,3_1_3,2022/9/4,2:00,0,1
�n����ʂ�,3_1_3,2022/9/4,3:00,2,3
�n����ʂ�,3_1_3,2022/9/4,4:00,4,0
�n����ʂ�,3_1_3,2022/9/4,5:00,17,12
�n����ʂ�,3_1_3,2022/9/4,6:00,38,28
�n����ʂ�,3_1_3,2022/9/4,7:00,60,56
�n����ʂ�,3_1_3,2022/9/4,8:00,110,81
�n����ʂ�,3_1_3,2022/9/4,9:00,129,153
�n����ʂ�,3_1_3,2022/9/4,10:00,222,250
�n����ʂ�,3_1_3,2022/9/4,11:00,315,244
�n����ʂ�,3_1_3,2022/9/4,12:00,287,308
�n����ʂ�,3_1_3,2022/9/4,13:00,412,386
�n����ʂ�,3_1_3,2022/9/4,14:00,428,310
�n����ʂ�,3_1_3,2022/9/4,15:00,366,286
�n����ʂ�,3_1_3,2022/9/4,16:00,285,210
�n����ʂ�,3_1_3,2022/9/4,17:00,193,156
�n����ʂ�,3_1_3,2022/9/4,18:00,120,110
�n����ʂ�,3_1_3,2022/9/4,19:00,81,72
�n����ʂ�,3_1_3,2022/9/4,20:00,52,41
�n����ʂ�,3_1_3,2022/9/4,21:00,14,1
�n����ʂ�,3_1_3,2022/9/4,22:00,5,1
�n����ʂ�,3_1_3,2022/9/4,23:00,3,1
�n����ʂ�,3_1_3,2022/9/5,0:00,1,1
�n����ʂ�,3_1_3,2022/9/5,1:00,2,0
�n����ʂ�,3_1_3,2022/9/5,2:00,0,1
�n����ʂ�,3_1_3,2022/9/5,3:00,2,0
�n����ʂ�,3_1_3,2022/9/5,4:00,3,0
�n����ʂ�,3_1_3,2022/9/5,5:00,21,20
�n����ʂ�,3_1_3,2022/9/5,6:00,48,61
�n����ʂ�,3_1_3,2022/9/5,7:00,80,430
�n����ʂ�,3_1_3,2022/9/5,8:00,125,398
�n����ʂ�,3_1_3,2022/9/5,9:00,167,144
�n����ʂ�,3_1_3,2022/9/5,10:00,184,208
�n����ʂ�,3_1_3,2022/9/5,11:00,254,197
�n����ʂ�,3_1_3,2022/9/5,12:00,221,273
�n����ʂ�,3_1_3,2022/9/5,13:00,169,201
�n����ʂ�,3_1_3,2022/9/5,14:00,222,154
�n����ʂ�,3_1_3,2022/9/5,15:00,225,151
�n����ʂ�,3_1_3,2022/9/5,16:00,302,115
�n����ʂ�,3_1_3,2022/9/5,17:00,355,111
�n����ʂ�,3_1_3,2022/9/5,18:00,272,126
�n����ʂ�,3_1_3,2022/9/5,19:00,82,87
�n����ʂ�,3_1_3,2022/9/5,20:00,66,75
�n����ʂ�,3_1_3,2022/9/5,21:00,38,38
�n����ʂ�,3_1_3,2022/9/5,22:00,26,1
�n����ʂ�,3_1_3,2022/9/5,23:00,11,2
�n����ʂ�,3_1_3,2022/9/6,0:00,0,0
�n����ʂ�,3_1_3,2022/9/6,1:00,4,0
�n����ʂ�,3_1_3,2022/9/6,2:00,1,1
�n����ʂ�,3_1_3,2022/9/6,3:00,0,1
�n����ʂ�,3_1_3,2022/9/6,4:00,5,0
�n����ʂ�,3_1_3,2022/9/6,5:00,12,12
�n����ʂ�,3_1_3,2022/9/6,6:00,22,48
�n����ʂ�,3_1_3,2022/9/6,7:00,50,170
�n����ʂ�,3_1_3,2022/9/6,8:00,67,181
�n����ʂ�,3_1_3,2022/9/6,9:00,113,98
�n����ʂ�,3_1_3,2022/9/6,10:00,140,151
�n����ʂ�,3_1_3,2022/9/6,11:00,142,149
�n����ʂ�,3_1_3,2022/9/6,12:00,159,182
�n����ʂ�,3_1_3,2022/9/6,13:00,153,150
�n����ʂ�,3_1_3,2022/9/6,14:00,155,136
�n����ʂ�,3_1_3,2022/9/6,15:00,172,116
�n����ʂ�,3_1_3,2022/9/6,16:00,155,98
�n����ʂ�,3_1_3,2022/9/6,17:00,195,114
�n����ʂ�,3_1_3,2022/9/6,18:00,212,86
�n����ʂ�,3_1_3,2022/9/6,19:00,87,80
�n����ʂ�,3_1_3,2022/9/6,20:00,54,53
�n����ʂ�,3_1_3,2022/9/6,21:00,55,41
�n����ʂ�,3_1_3,2022/9/6,22:00,17,5
�n����ʂ�,3_1_3,2022/9/6,23:00,6,0
�n����ʂ�,3_1_3,2022/9/7,0:00,3,0
�n����ʂ�,3_1_3,2022/9/7,1:00,3,0
�n����ʂ�,3_1_3,2022/9/7,2:00,3,1
�n����ʂ�,3_1_3,2022/9/7,3:00,0,1
�n����ʂ�,3_1_3,2022/9/7,4:00,6,0
�n����ʂ�,3_1_3,2022/9/7,5:00,20,12
�n����ʂ�,3_1_3,2022/9/7,6:00,48,84
�n����ʂ�,3_1_3,2022/9/7,7:00,88,368
�n����ʂ�,3_1_3,2022/9/7,8:00,126,384
�n����ʂ�,3_1_3,2022/9/7,9:00,151,140
�n����ʂ�,3_1_3,2022/9/7,10:00,211,186
�n����ʂ�,3_1_3,2022/9/7,11:00,181,180
�n����ʂ�,3_1_3,2022/9/7,12:00,236,225
�n����ʂ�,3_1_3,2022/9/7,13:00,194,230
�n����ʂ�,3_1_3,2022/9/7,14:00,180,190
�n����ʂ�,3_1_3,2022/9/7,15:00,274,136
�n����ʂ�,3_1_3,2022/9/7,16:00,400,127
�n����ʂ�,3_1_3,2022/9/7,17:00,239,117
�n����ʂ�,3_1_3,2022/9/7,18:00,135,142
�n����ʂ�,3_1_3,2022/9/7,19:00,101,83
�n����ʂ�,3_1_3,2022/9/7,20:00,91,57
�n����ʂ�,3_1_3,2022/9/7,21:00,66,36
�n����ʂ�,3_1_3,2022/9/7,22:00,6,4
�n����ʂ�,3_1_3,2022/9/7,23:00,10,0
�n����ʂ�,3_1_3,2022/9/8,0:00,4,2
�n����ʂ�,3_1_3,2022/9/8,1:00,1,0
�n����ʂ�,3_1_3,2022/9/8,2:00,1,0
�n����ʂ�,3_1_3,2022/9/8,3:00,2,2
�n����ʂ�,3_1_3,2022/9/8,4:00,6,1
�n����ʂ�,3_1_3,2022/9/8,5:00,13,20
�n����ʂ�,3_1_3,2022/9/8,6:00,48,81
�n����ʂ�,3_1_3,2022/9/8,7:00,88,334
�n����ʂ�,3_1_3,2022/9/8,8:00,143,407
�n����ʂ�,3_1_3,2022/9/8,9:00,161,150
�n����ʂ�,3_1_3,2022/9/8,10:00,164,138
�n����ʂ�,3_1_3,2022/9/8,11:00,203,219
�n����ʂ�,3_1_3,2022/9/8,12:00,185,195
�n����ʂ�,3_1_3,2022/9/8,13:00,250,201
�n����ʂ�,3_1_3,2022/9/8,14:00,212,240
�n����ʂ�,3_1_3,2022/9/8,15:00,198,161
�n����ʂ�,3_1_3,2022/9/8,16:00,302,134
�n����ʂ�,3_1_3,2022/9/8,17:00,307,118
�n����ʂ�,3_1_3,2022/9/8,18:00,286,126
�n����ʂ�,3_1_3,2022/9/8,19:00,103,82
�n����ʂ�,3_1_3,2022/9/8,20:00,69,45
�n����ʂ�,3_1_3,2022/9/8,21:00,66,37
�n����ʂ�,3_1_3,2022/9/8,22:00,13,2
�n����ʂ�,3_1_3,2022/9/8,23:00,12,1
�n����ʂ�,3_1_3,2022/9/9,0:00,4,1
�n����ʂ�,3_1_3,2022/9/9,1:00,0,0
�n����ʂ�,3_1_3,2022/9/9,2:00,1,1
�n����ʂ�,3_1_3,2022/9/9,3:00,0,1
�n����ʂ�,3_1_3,2022/9/9,4:00,5,1
�n����ʂ�,3_1_3,2022/9/9,5:00,17,16
�n����ʂ�,3_1_3,2022/9/9,6:00,41,66
�n����ʂ�,3_1_3,2022/9/9,7:00,35,120
�n����ʂ�,3_1_3,2022/9/9,8:00,0,0
�n����ʂ�,3_1_3,2022/9/9,9:00,0,0
�n����ʂ�,3_1_3,2022/9/9,10:00,0,0
�n����ʂ�,3_1_3,2022/9/9,11:00,0,0
�n����ʂ�,3_1_3,2022/9/9,12:00,0,0
�n����ʂ�,3_1_3,2022/9/9,13:00,0,0
�n����ʂ�,3_1_3,2022/9/9,14:00,0,0
�n����ʂ�,3_1_3,2022/9/9,15:00,0,0
�n����ʂ�,3_1_3,2022/9/9,16:00,0,0
�n����ʂ�,3_1_3,2022/9/9,17:00,0,0
�n����ʂ�,3_1_3,2022/9/9,18:00,0,0
�n����ʂ�,3_1_3,2022/9/9,19:00,0,0
�n����ʂ�,3_1_3,2022/9/9,20:00,0,0
�n����ʂ�,3_1_3,2022/9/9,21:00,0,0
�n����ʂ�,3_1_3,2022/9/9,22:00,0,0
�n����ʂ�,3_1_3,2022/9/9,23:00,0,0
�n����ʂ�,3_1_3,2022/9/10,0:00,0,0
�n����ʂ�,3_1_3,2022/9/10,1:00,0,0
�n����ʂ�,3_1_3,2022/9/10,2:00,0,0
�n����ʂ�,3_1_3,2022/9/10,3:00,0,0
�n����ʂ�,3_1_3,2022/9/10,4:00,0,0
�n����ʂ�,3_1_3,2022/9/10,5:00,0,0
�n����ʂ�,3_1_3,2022/9/10,6:00,0,0
�n����ʂ�,3_1_3,2022/9/10,7:00,0,0
�n����ʂ�,3_1_3,2022/9/10,8:00,0,0
�n����ʂ�,3_1_3,2022/9/10,9:00,0,0
�n����ʂ�,3_1_3,2022/9/10,10:00,0,0
�n����ʂ�,3_1_3,2022/9/10,11:00,0,0
�n����ʂ�,3_1_3,2022/9/10,12:00,0,0
�n����ʂ�,3_1_3,2022/9/10,13:00,0,0
�n����ʂ�,3_1_3,2022/9/10,14:00,0,0
�n����ʂ�,3_1_3,2022/9/10,15:00,0,0
�n����ʂ�,3_1_3,2022/9/10,16:00,0,0
�n����ʂ�,3_1_3,2022/9/10,17:00,0,0
�n����ʂ�,3_1_3,2022/9/10,18:00,0,0
�n����ʂ�,3_1_3,2022/9/10,19:00,0,0
�n����ʂ�,3_1_3,2022/9/10,20:00,0,0
�n����ʂ�,3_1_3,2022/9/10,21:00,0,0
�n����ʂ�,3_1_3,2022/9/10,22:00,0,0
�n����ʂ�,3_1_3,2022/9/10,23:00,0,0
�n����ʂ�,3_1_3,2022/9/11,0:00,0,0
�n����ʂ�,3_1_3,2022/9/11,1:00,0,0
�n����ʂ�,3_1_3,2022/9/11,2:00,0,0
�n����ʂ�,3_1_3,2022/9/11,3:00,0,0
�n����ʂ�,3_1_3,2022/9/11,4:00,0,0
�n����ʂ�,3_1_3,2022/9/11,5:00,0,0
�n����ʂ�,3_1_3,2022/9/11,6:00,0,0
�n����ʂ�,3_1_3,2022/9/11,7:00,0,0
�n����ʂ�,3_1_3,2022/9/11,8:00,0,0
�n����ʂ�,3_1_3,2022/9/11,9:00,0,0
�n����ʂ�,3_1_3,2022/9/11,10:00,0,0
�n����ʂ�,3_1_3,2022/9/11,11:00,0,0
�n����ʂ�,3_1_3,2022/9/11,12:00,0,0
�n����ʂ�,3_1_3,2022/9/11,13:00,0,0
�n����ʂ�,3_1_3,2022/9/11,14:00,0,0
�n����ʂ�,3_1_3,2022/9/11,15:00,0,0
�n����ʂ�,3_1_3,2022/9/11,16:00,0,0
�n����ʂ�,3_1_3,2022/9/11,17:00,0,0
�n����ʂ�,3_1_3,2022/9/11,18:00,0,0
�n����ʂ�,3_1_3,2022/9/11,19:00,0,0
�n����ʂ�,3_1_3,2022/9/11,20:00,0,0
�n����ʂ�,3_1_3,2022/9/11,21:00,0,0
�n����ʂ�,3_1_3,2022/9/11,22:00,0,0
�n����ʂ�,3_1_3,2022/9/11,23:00,0,0
�n����ʂ�,3_1_3,2022/9/12,0:00,0,0
�n����ʂ�,3_1_3,2022/9/12,1:00,0,0
�n����ʂ�,3_1_3,2022/9/12,2:00,0,0
�n����ʂ�,3_1_3,2022/9/12,3:00,0,0
�n����ʂ�,3_1_3,2022/9/12,4:00,0,0
�n����ʂ�,3_1_3,2022/9/12,5:00,0,0
�n����ʂ�,3_1_3,2022/9/12,6:00,0,0
�n����ʂ�,3_1_3,2022/9/12,7:00,0,0
�n����ʂ�,3_1_3,2022/9/12,8:00,0,0
�n����ʂ�,3_1_3,2022/9/12,9:00,0,0
�n����ʂ�,3_1_3,2022/9/12,10:00,0,0
�n����ʂ�,3_1_3,2022/9/12,11:00,0,0
�n����ʂ�,3_1_3,2022/9/12,12:00,258,250
�n����ʂ�,3_1_3,2022/9/12,13:00,231,241
�n����ʂ�,3_1_3,2022/9/12,14:00,241,193
�n����ʂ�,3_1_3,2022/9/12,15:00,368,162
�n����ʂ�,3_1_3,2022/9/12,16:00,367,118
�n����ʂ�,3_1_3,2022/9/12,17:00,285,124
�n����ʂ�,3_1_3,2022/9/12,18:00,233,148
�n����ʂ�,3_1_3,2022/9/12,19:00,89,77
�n����ʂ�,3_1_3,2022/9/12,20:00,59,62
�n����ʂ�,3_1_3,2022/9/12,21:00,55,25
�n����ʂ�,3_1_3,2022/9/12,22:00,6,1
�n����ʂ�,3_1_3,2022/9/12,23:00,8,1
�n����ʂ�,3_1_3,2022/9/13,0:00,5,2
�n����ʂ�,3_1_3,2022/9/13,1:00,3,0
�n����ʂ�,3_1_3,2022/9/13,2:00,1,1
�n����ʂ�,3_1_3,2022/9/13,3:00,1,1
�n����ʂ�,3_1_3,2022/9/13,4:00,6,1
�n����ʂ�,3_1_3,2022/9/13,5:00,11,17
�n����ʂ�,3_1_3,2022/9/13,6:00,32,40
�n����ʂ�,3_1_3,2022/9/13,7:00,90,360
�n����ʂ�,3_1_3,2022/9/13,8:00,125,426
�n����ʂ�,3_1_3,2022/9/13,9:00,126,131
�n����ʂ�,3_1_3,2022/9/13,10:00,169,182
�n����ʂ�,3_1_3,2022/9/13,11:00,182,174
�n����ʂ�,3_1_3,2022/9/13,12:00,227,252
�n����ʂ�,3_1_3,2022/9/13,13:00,242,201
�n����ʂ�,3_1_3,2022/9/13,14:00,192,193
�n����ʂ�,3_1_3,2022/9/13,15:00,222,137
�n����ʂ�,3_1_3,2022/9/13,16:00,358,186
�n����ʂ�,3_1_3,2022/9/13,17:00,320,152
�n����ʂ�,3_1_3,2022/9/13,18:00,254,111
�n����ʂ�,3_1_3,2022/9/13,19:00,86,91
�n����ʂ�,3_1_3,2022/9/13,20:00,82,55
�n����ʂ�,3_1_3,2022/9/13,21:00,59,48
�n����ʂ�,3_1_3,2022/9/13,22:00,23,26
�n����ʂ�,3_1_3,2022/9/13,23:00,6,1
�n����ʂ�,3_1_3,2022/9/14,0:00,1,0
�n����ʂ�,3_1_3,2022/9/14,1:00,3,0
�n����ʂ�,3_1_3,2022/9/14,2:00,0,0
�n����ʂ�,3_1_3,2022/9/14,3:00,0,5
�n����ʂ�,3_1_3,2022/9/14,4:00,6,2
�n����ʂ�,3_1_3,2022/9/14,5:00,12,16
�n����ʂ�,3_1_3,2022/9/14,6:00,40,109
�n����ʂ�,3_1_3,2022/9/14,7:00,86,306
�n����ʂ�,3_1_3,2022/9/14,8:00,133,417
�n����ʂ�,3_1_3,2022/9/14,9:00,133,155
�n����ʂ�,3_1_3,2022/9/14,10:00,185,188
�n����ʂ�,3_1_3,2022/9/14,11:00,171,210
�n����ʂ�,3_1_3,2022/9/14,12:00,234,235
�n����ʂ�,3_1_3,2022/9/14,13:00,239,172
�n����ʂ�,3_1_3,2022/9/14,14:00,187,161
�n����ʂ�,3_1_3,2022/9/14,15:00,311,160
�n����ʂ�,3_1_3,2022/9/14,16:00,479,165
�n����ʂ�,3_1_3,2022/9/14,17:00,316,139
�n����ʂ�,3_1_3,2022/9/14,18:00,156,139
�n����ʂ�,3_1_3,2022/9/14,19:00,84,78
�n����ʂ�,3_1_3,2022/9/14,20:00,62,60
�n����ʂ�,3_1_3,2022/9/14,21:00,67,26
�n����ʂ�,3_1_3,2022/9/14,22:00,10,0
�n����ʂ�,3_1_3,2022/9/14,23:00,7,1
�n����ʂ�,3_1_3,2022/9/15,0:00,2,0
�n����ʂ�,3_1_3,2022/9/15,1:00,1,0
�n����ʂ�,3_1_3,2022/9/15,2:00,3,0
�n����ʂ�,3_1_3,2022/9/15,3:00,3,1
�n����ʂ�,3_1_3,2022/9/15,4:00,4,1
�n����ʂ�,3_1_3,2022/9/15,5:00,20,13
�n����ʂ�,3_1_3,2022/9/15,6:00,43,52
�n����ʂ�,3_1_3,2022/9/15,7:00,85,443
�n����ʂ�,3_1_3,2022/9/15,8:00,121,329
�n����ʂ�,3_1_3,2022/9/15,9:00,154,138
�n����ʂ�,3_1_3,2022/9/15,10:00,180,198
�n����ʂ�,3_1_3,2022/9/15,11:00,181,173
�n����ʂ�,3_1_3,2022/9/15,12:00,238,227
�n����ʂ�,3_1_3,2022/9/15,13:00,237,204
�n����ʂ�,3_1_3,2022/9/15,14:00,241,162
�n����ʂ�,3_1_3,2022/9/15,15:00,313,148
�n����ʂ�,3_1_3,2022/9/15,16:00,411,154
�n����ʂ�,3_1_3,2022/9/15,17:00,313,144
�n����ʂ�,3_1_3,2022/9/15,18:00,203,130
�n����ʂ�,3_1_3,2022/9/15,19:00,77,95
�n����ʂ�,3_1_3,2022/9/15,20:00,71,75
�n����ʂ�,3_1_3,2022/9/15,21:00,45,26
�n����ʂ�,3_1_3,2022/9/15,22:00,21,0
�n����ʂ�,3_1_3,2022/9/15,23:00,4,1
�n����ʂ�,3_1_3,2022/9/16,0:00,2,0
�n����ʂ�,3_1_3,2022/9/16,1:00,6,0
�n����ʂ�,3_1_3,2022/9/16,2:00,2,0
�n����ʂ�,3_1_3,2022/9/16,3:00,1,4
�n����ʂ�,3_1_3,2022/9/16,4:00,3,1
�n����ʂ�,3_1_3,2022/9/16,5:00,12,16
�n����ʂ�,3_1_3,2022/9/16,6:00,45,48
�n����ʂ�,3_1_3,2022/9/16,7:00,67,300
�n����ʂ�,3_1_3,2022/9/16,8:00,108,334
�n����ʂ�,3_1_3,2022/9/16,9:00,142,157
�n����ʂ�,3_1_3,2022/9/16,10:00,241,197
�n����ʂ�,3_1_3,2022/9/16,11:00,189,199
�n����ʂ�,3_1_3,2022/9/16,12:00,274,232
�n����ʂ�,3_1_3,2022/9/16,13:00,212,238
�n����ʂ�,3_1_3,2022/9/16,14:00,252,218
�n����ʂ�,3_1_3,2022/9/16,15:00,316,171
�n����ʂ�,3_1_3,2022/9/16,16:00,327,199
�n����ʂ�,3_1_3,2022/9/16,17:00,359,171
�n����ʂ�,3_1_3,2022/9/16,18:00,273,167
�n����ʂ�,3_1_3,2022/9/16,19:00,98,87
�n����ʂ�,3_1_3,2022/9/16,20:00,76,73
�n����ʂ�,3_1_3,2022/9/16,21:00,79,67
�n����ʂ�,3_1_3,2022/9/16,22:00,24,6
�n����ʂ�,3_1_3,2022/9/16,23:00,14,1
�n����ʂ�,3_1_3,2022/9/17,0:00,8,3
�n����ʂ�,3_1_3,2022/9/17,1:00,5,0
�n����ʂ�,3_1_3,2022/9/17,2:00,1,0
�n����ʂ�,3_1_3,2022/9/17,3:00,1,1
�n����ʂ�,3_1_3,2022/9/17,4:00,5,1
�n����ʂ�,3_1_3,2022/9/17,5:00,13,18
�n����ʂ�,3_1_3,2022/9/17,6:00,27,48
�n����ʂ�,3_1_3,2022/9/17,7:00,61,82
�n����ʂ�,3_1_3,2022/9/17,8:00,98,124
�n����ʂ�,3_1_3,2022/9/17,9:00,141,202
�n����ʂ�,3_1_3,2022/9/17,10:00,239,323
�n����ʂ�,3_1_3,2022/9/17,11:00,350,370
�n����ʂ�,3_1_3,2022/9/17,12:00,415,493
�n����ʂ�,3_1_3,2022/9/17,13:00,508,501
�n����ʂ�,3_1_3,2022/9/17,14:00,502,442
�n����ʂ�,3_1_3,2022/9/17,15:00,460,389
�n����ʂ�,3_1_3,2022/9/17,16:00,426,306
�n����ʂ�,3_1_3,2022/9/17,17:00,319,249
�n����ʂ�,3_1_3,2022/9/17,18:00,171,202
�n����ʂ�,3_1_3,2022/9/17,19:00,88,103
�n����ʂ�,3_1_3,2022/9/17,20:00,100,80
�n����ʂ�,3_1_3,2022/9/17,21:00,72,64
�n����ʂ�,3_1_3,2022/9/17,22:00,29,11
�n����ʂ�,3_1_3,2022/9/17,23:00,17,1
�n����ʂ�,3_1_3,2022/9/18,0:00,7,0
�n����ʂ�,3_1_3,2022/9/18,1:00,3,2
�n����ʂ�,3_1_3,2022/9/18,2:00,2,0
�n����ʂ�,3_1_3,2022/9/18,3:00,1,3
�n����ʂ�,3_1_3,2022/9/18,4:00,3,0
�n����ʂ�,3_1_3,2022/9/18,5:00,10,11
�n����ʂ�,3_1_3,2022/9/18,6:00,28,29
�n����ʂ�,3_1_3,2022/9/18,7:00,48,50
�n����ʂ�,3_1_3,2022/9/18,8:00,71,82
�n����ʂ�,3_1_3,2022/9/18,9:00,126,134
�n����ʂ�,3_1_3,2022/9/18,10:00,221,280
�n����ʂ�,3_1_3,2022/9/18,11:00,339,373
�n����ʂ�,3_1_3,2022/9/18,12:00,366,312
�n����ʂ�,3_1_3,2022/9/18,13:00,470,373
�n����ʂ�,3_1_3,2022/9/18,14:00,324,357
�n����ʂ�,3_1_3,2022/9/18,15:00,263,248
�n����ʂ�,3_1_3,2022/9/18,16:00,202,160
�n����ʂ�,3_1_3,2022/9/18,17:00,109,115
�n����ʂ�,3_1_3,2022/9/18,18:00,56,60
�n����ʂ�,3_1_3,2022/9/18,19:00,32,35
�n����ʂ�,3_1_3,2022/9/18,20:00,22,31
�n����ʂ�,3_1_3,2022/9/18,21:00,2,2
�n����ʂ�,3_1_3,2022/9/18,22:00,3,2
�n����ʂ�,3_1_3,2022/9/18,23:00,0,1
�n����ʂ�,3_1_3,2022/9/19,0:00,4,1
�n����ʂ�,3_1_3,2022/9/19,1:00,2,2
�n����ʂ�,3_1_3,2022/9/19,2:00,0,4
�n����ʂ�,3_1_3,2022/9/19,3:00,0,2
�n����ʂ�,3_1_3,2022/9/19,4:00,2,0
�n����ʂ�,3_1_3,2022/9/19,5:00,12,7
�n����ʂ�,3_1_3,2022/9/19,6:00,22,14
�n����ʂ�,3_1_3,2022/9/19,7:00,23,26
�n����ʂ�,3_1_3,2022/9/19,8:00,29,31
�n����ʂ�,3_1_3,2022/9/19,9:00,31,41
�n����ʂ�,3_1_3,2022/9/19,10:00,42,65
�n����ʂ�,3_1_3,2022/9/19,11:00,28,25
�n����ʂ�,3_1_3,2022/9/19,12:00,35,33
�n����ʂ�,3_1_3,2022/9/19,13:00,29,27
�n����ʂ�,3_1_3,2022/9/19,14:00,29,21
�n����ʂ�,3_1_3,2022/9/19,15:00,32,34
�n����ʂ�,3_1_3,2022/9/19,16:00,30,48
�n����ʂ�,3_1_3,2022/9/19,17:00,54,47
�n����ʂ�,3_1_3,2022/9/19,18:00,34,31
�n����ʂ�,3_1_3,2022/9/19,19:00,17,16
�n����ʂ�,3_1_3,2022/9/19,20:00,11,10
�n����ʂ�,3_1_3,2022/9/19,21:00,6,0
�n����ʂ�,3_1_3,2022/9/19,22:00,2,1
�n����ʂ�,3_1_3,2022/9/19,23:00,1,1
�n����ʂ�,3_1_3,2022/9/20,0:00,2,0
�n����ʂ�,3_1_3,2022/9/20,1:00,0,1
�n����ʂ�,3_1_3,2022/9/20,2:00,1,0
�n����ʂ�,3_1_3,2022/9/20,3:00,3,2
�n����ʂ�,3_1_3,2022/9/20,4:00,4,3
�n����ʂ�,3_1_3,2022/9/20,5:00,13,7
�n����ʂ�,3_1_3,2022/9/20,6:00,28,42
�n����ʂ�,3_1_3,2022/9/20,7:00,81,241
�n����ʂ�,3_1_3,2022/9/20,8:00,137,397
�n����ʂ�,3_1_3,2022/9/20,9:00,117,144
�n����ʂ�,3_1_3,2022/9/20,10:00,194,194
�n����ʂ�,3_1_3,2022/9/20,11:00,200,196
�n����ʂ�,3_1_3,2022/9/20,12:00,256,207
�n����ʂ�,3_1_3,2022/9/20,13:00,207,175
�n����ʂ�,3_1_3,2022/9/20,14:00,193,217
�n����ʂ�,3_1_3,2022/9/20,15:00,222,163
�n����ʂ�,3_1_3,2022/9/20,16:00,345,162
�n����ʂ�,3_1_3,2022/9/20,17:00,385,148
�n����ʂ�,3_1_3,2022/9/20,18:00,231,145
�n����ʂ�,3_1_3,2022/9/20,19:00,99,100
�n����ʂ�,3_1_3,2022/9/20,20:00,63,71
�n����ʂ�,3_1_3,2022/9/20,21:00,70,34
�n����ʂ�,3_1_3,2022/9/20,22:00,15,1
�n����ʂ�,3_1_3,2022/9/20,23:00,14,0
�n����ʂ�,3_1_3,2022/9/21,0:00,7,1
�n����ʂ�,3_1_3,2022/9/21,1:00,2,0
�n����ʂ�,3_1_3,2022/9/21,2:00,0,2
�n����ʂ�,3_1_3,2022/9/21,3:00,2,1
�n����ʂ�,3_1_3,2022/9/21,4:00,3,1
�n����ʂ�,3_1_3,2022/9/21,5:00,15,15
�n����ʂ�,3_1_3,2022/9/21,6:00,40,45
�n����ʂ�,3_1_3,2022/9/21,7:00,77,320
�n����ʂ�,3_1_3,2022/9/21,8:00,111,317
�n����ʂ�,3_1_3,2022/9/21,9:00,122,120
�n����ʂ�,3_1_3,2022/9/21,10:00,184,178
�n����ʂ�,3_1_3,2022/9/21,11:00,238,208
�n����ʂ�,3_1_3,2022/9/21,12:00,182,195
�n����ʂ�,3_1_3,2022/9/21,13:00,212,207
�n����ʂ�,3_1_3,2022/9/21,14:00,219,226
�n����ʂ�,3_1_3,2022/9/21,15:00,282,137
�n����ʂ�,3_1_3,2022/9/21,16:00,534,177
�n����ʂ�,3_1_3,2022/9/21,17:00,275,160
�n����ʂ�,3_1_3,2022/9/21,18:00,139,132
�n����ʂ�,3_1_3,2022/9/21,19:00,112,112
�n����ʂ�,3_1_3,2022/9/21,20:00,97,76
�n����ʂ�,3_1_3,2022/9/21,21:00,63,39
�n����ʂ�,3_1_3,2022/9/21,22:00,19,1
�n����ʂ�,3_1_3,2022/9/21,23:00,3,3
�n����ʂ�,3_1_3,2022/9/22,0:00,6,0
�n����ʂ�,3_1_3,2022/9/22,1:00,0,0
�n����ʂ�,3_1_3,2022/9/22,2:00,4,1
�n����ʂ�,3_1_3,2022/9/22,3:00,0,1
�n����ʂ�,3_1_3,2022/9/22,4:00,3,1
�n����ʂ�,3_1_3,2022/9/22,5:00,16,12
�n����ʂ�,3_1_3,2022/9/22,6:00,34,58
�n����ʂ�,3_1_3,2022/9/22,7:00,87,382
�n����ʂ�,3_1_3,2022/9/22,8:00,133,295
�n����ʂ�,3_1_3,2022/9/22,9:00,163,155
�n����ʂ�,3_1_3,2022/9/22,10:00,193,193
�n����ʂ�,3_1_3,2022/9/22,11:00,218,287
�n����ʂ�,3_1_3,2022/9/22,12:00,272,251
�n����ʂ�,3_1_3,2022/9/22,13:00,219,230
�n����ʂ�,3_1_3,2022/9/22,14:00,260,177
�n����ʂ�,3_1_3,2022/9/22,15:00,231,175
�n����ʂ�,3_1_3,2022/9/22,16:00,413,187
�n����ʂ�,3_1_3,2022/9/22,17:00,409,180
�n����ʂ�,3_1_3,2022/9/22,18:00,196,159
�n����ʂ�,3_1_3,2022/9/22,19:00,101,87
�n����ʂ�,3_1_3,2022/9/22,20:00,57,59
�n����ʂ�,3_1_3,2022/9/22,21:00,84,44
�n����ʂ�,3_1_3,2022/9/22,22:00,38,20
�n����ʂ�,3_1_3,2022/9/22,23:00,4,4
�n����ʂ�,3_1_3,2022/9/23,0:00,7,2
�n����ʂ�,3_1_3,2022/9/23,1:00,8,0
�n����ʂ�,3_1_3,2022/9/23,2:00,5,1
�n����ʂ�,3_1_3,2022/9/23,3:00,2,4
�n����ʂ�,3_1_3,2022/9/23,4:00,4,2
�n����ʂ�,3_1_3,2022/9/23,5:00,11,12
�n����ʂ�,3_1_3,2022/9/23,6:00,37,28
�n����ʂ�,3_1_3,2022/9/23,7:00,54,56
�n����ʂ�,3_1_3,2022/9/23,8:00,71,73
�n����ʂ�,3_1_3,2022/9/23,9:00,154,191
�n����ʂ�,3_1_3,2022/9/23,10:00,230,388
�n����ʂ�,3_1_3,2022/9/23,11:00,356,479
�n����ʂ�,3_1_3,2022/9/23,12:00,491,569
�n����ʂ�,3_1_3,2022/9/23,13:00,576,536
�n����ʂ�,3_1_3,2022/9/23,14:00,664,521
�n����ʂ�,3_1_3,2022/9/23,15:00,527,446
�n����ʂ�,3_1_3,2022/9/23,16:00,515,338
�n����ʂ�,3_1_3,2022/9/23,17:00,358,282
�n����ʂ�,3_1_3,2022/9/23,18:00,168,193
�n����ʂ�,3_1_3,2022/9/23,19:00,116,83
�n����ʂ�,3_1_3,2022/9/23,20:00,61,85
�n����ʂ�,3_1_3,2022/9/23,21:00,84,61
�n����ʂ�,3_1_3,2022/9/23,22:00,23,11
�n����ʂ�,3_1_3,2022/9/23,23:00,11,1
�n����ʂ�,3_1_3,2022/9/24,0:00,7,0
�n����ʂ�,3_1_3,2022/9/24,1:00,3,1
�n����ʂ�,3_1_3,2022/9/24,2:00,5,0
�n����ʂ�,3_1_3,2022/9/24,3:00,2,2
�n����ʂ�,3_1_3,2022/9/24,4:00,2,0
�n����ʂ�,3_1_3,2022/9/24,5:00,15,15
�n����ʂ�,3_1_3,2022/9/24,6:00,53,53
�n����ʂ�,3_1_3,2022/9/24,7:00,51,87
�n����ʂ�,3_1_3,2022/9/24,8:00,130,112
�n����ʂ�,3_1_3,2022/9/24,9:00,143,250
�n����ʂ�,3_1_3,2022/9/24,10:00,306,486
�n����ʂ�,3_1_3,2022/9/24,11:00,442,611
�n����ʂ�,3_1_3,2022/9/24,12:00,566,620
�n����ʂ�,3_1_3,2022/9/24,13:00,657,690
�n����ʂ�,3_1_3,2022/9/24,14:00,698,573
�n����ʂ�,3_1_3,2022/9/24,15:00,589,470
�n����ʂ�,3_1_3,2022/9/24,16:00,510,427
�n����ʂ�,3_1_3,2022/9/24,17:00,429,311
�n����ʂ�,3_1_3,2022/9/24,18:00,280,282
�n����ʂ�,3_1_3,2022/9/24,19:00,170,160
�n����ʂ�,3_1_3,2022/9/24,20:00,114,123
�n����ʂ�,3_1_3,2022/9/24,21:00,90,58
�n����ʂ�,3_1_3,2022/9/24,22:00,50,28
�n����ʂ�,3_1_3,2022/9/24,23:00,22,1
�n����ʂ�,3_1_3,2022/9/25,0:00,6,0
�n����ʂ�,3_1_3,2022/9/25,1:00,5,0
�n����ʂ�,3_1_3,2022/9/25,2:00,1,1
�n����ʂ�,3_1_3,2022/9/25,3:00,3,2
�n����ʂ�,3_1_3,2022/9/25,4:00,4,0
�n����ʂ�,3_1_3,2022/9/25,5:00,11,6
�n����ʂ�,3_1_3,2022/9/25,6:00,26,22
�n����ʂ�,3_1_3,2022/9/25,7:00,65,53
�n����ʂ�,3_1_3,2022/9/25,8:00,121,100
�n����ʂ�,3_1_3,2022/9/25,9:00,125,186
�n����ʂ�,3_1_3,2022/9/25,10:00,305,462
�n����ʂ�,3_1_3,2022/9/25,11:00,909,562
�n����ʂ�,3_1_3,2022/9/25,12:00,683,693
�n����ʂ�,3_1_3,2022/9/25,13:00,673,563
�n����ʂ�,3_1_3,2022/9/25,14:00,616,529
�n����ʂ�,3_1_3,2022/9/25,15:00,594,415
�n����ʂ�,3_1_3,2022/9/25,16:00,438,370
�n����ʂ�,3_1_3,2022/9/25,17:00,253,190
�n����ʂ�,3_1_3,2022/9/25,18:00,177,157
�n����ʂ�,3_1_3,2022/9/25,19:00,87,63
�n����ʂ�,3_1_3,2022/9/25,20:00,62,83
�n����ʂ�,3_1_3,2022/9/25,21:00,31,31
�n����ʂ�,3_1_3,2022/9/25,22:00,19,1
�n����ʂ�,3_1_3,2022/9/25,23:00,8,2
�n����ʂ�,3_1_3,2022/9/26,0:00,4,0
�n����ʂ�,3_1_3,2022/9/26,1:00,1,0
�n����ʂ�,3_1_3,2022/9/26,2:00,3,0
�n����ʂ�,3_1_3,2022/9/26,3:00,3,1
�n����ʂ�,3_1_3,2022/9/26,4:00,5,0
�n����ʂ�,3_1_3,2022/9/26,5:00,10,18
�n����ʂ�,3_1_3,2022/9/26,6:00,40,52
�n����ʂ�,3_1_3,2022/9/26,7:00,81,369
�n����ʂ�,3_1_3,2022/9/26,8:00,118,288
�n����ʂ�,3_1_3,2022/9/26,9:00,201,143
�n����ʂ�,3_1_3,2022/9/26,10:00,233,204
�n����ʂ�,3_1_3,2022/9/26,11:00,288,213
�n����ʂ�,3_1_3,2022/9/26,12:00,383,257
�n����ʂ�,3_1_3,2022/9/26,13:00,239,200
�n����ʂ�,3_1_3,2022/9/26,14:00,262,205
�n����ʂ�,3_1_3,2022/9/26,15:00,270,142
�n����ʂ�,3_1_3,2022/9/26,16:00,209,149
�n����ʂ�,3_1_3,2022/9/26,17:00,255,110
�n����ʂ�,3_1_3,2022/9/26,18:00,212,127
�n����ʂ�,3_1_3,2022/9/26,19:00,114,85
�n����ʂ�,3_1_3,2022/9/26,20:00,57,75
�n����ʂ�,3_1_3,2022/9/26,21:00,75,35
�n����ʂ�,3_1_3,2022/9/26,22:00,18,7
�n����ʂ�,3_1_3,2022/9/26,23:00,1,5
�n����ʂ�,3_1_3,2022/9/27,0:00,6,5
�n����ʂ�,3_1_3,2022/9/27,1:00,1,0
�n����ʂ�,3_1_3,2022/9/27,2:00,1,1
�n����ʂ�,3_1_3,2022/9/27,3:00,0,2
�n����ʂ�,3_1_3,2022/9/27,4:00,8,0
�n����ʂ�,3_1_3,2022/9/27,5:00,7,7
�n����ʂ�,3_1_3,2022/9/27,6:00,34,35
�n����ʂ�,3_1_3,2022/9/27,7:00,61,244
�n����ʂ�,3_1_3,2022/9/27,8:00,89,227
�n����ʂ�,3_1_3,2022/9/27,9:00,90,114
�n����ʂ�,3_1_3,2022/9/27,10:00,138,127
�n����ʂ�,3_1_3,2022/9/27,11:00,169,131
�n����ʂ�,3_1_3,2022/9/27,12:00,231,165
�n����ʂ�,3_1_3,2022/9/27,13:00,199,164
�n����ʂ�,3_1_3,2022/9/27,14:00,173,158
�n����ʂ�,3_1_3,2022/9/27,15:00,167,129
�n����ʂ�,3_1_3,2022/9/27,16:00,199,157